Johnstown, PA

7:29 PM EDT on September 22, 2019 (GMT -0400)
Johnstown-Cambria County

Weather History for KJST - August, 2019

Change the Weather History Date:

Monday, August 19, 2019

  Actual Average Record
Temperature  
Mean Temperature 74 °F 68 °F  
Max Temperature 82 °F 76 °F 96 °F (1914)
Min Temperature 65 °F 60 °F 44 °F (1943)
Degree Days  
Heating Degree Days 0 1  
Month to date heating degree days 1 15  
Since 1 June heating degree days 68 107  
Since 1 July heating degree days 3 28  
Cooling Degree Days 9 4  
Month to date cooling degree days 111 83  
Year to date cooling degree days 434 325  
Since 1 June cooling degree days 400 301  
Growing Degree Days 24 (Base 50)    
Moisture  
Dew Point 62 °F    
Average Humidity 67    
Maximum Humidity 87    
Minimum Humidity 47    
Precipitation  
Precipitation 0.00 in 0.13 in 2.64 in (1906)
Month to date precipitation 2.01 2.43  
Year to date precipitation 27.51 26.98  
Sea Level Pressure  
Sea Level Pressure 30.05 in    
Wind  
Wind Speed 6 mph ()    
Max Wind Speed 23 mph    
Max Gust Speed 36 mph    
Visibility 10.0 miles    
Events      
T = Trace of Precipitation, MM = Missing Value Source: Averaged Metar Reports

Daily Weather History Graph

Daily Weather History Graph

Search for Another Location

Airport or City:

Astronomy

Aug. 19, 2019 Rise Set
Actual Time 6:30 AM EDT 8:07 PM EDT
Civil Twilight 6:01 AM EDT 8:36 PM EDT
Nautical Twilight 5:26 AM EDT 9:10 PM EDT
Astronomical Twilight 4:49 AM EDT 9:47 PM EDT
Moon 10:27 PM EDT (8/19) 10:09 AM EDT (8/19)
Length of Visible Light 14h 34m
Length of Day
13h 37m
Waning Gibbous, 85% of the Moon is Illuminated
Aug 19
Waning Gibbous
Aug 23
Last Quarter
Aug 30
New
Sep 5
First Quarter
Sep 14
Full

Hourly Weather History & Observations

Time (EDT) Temp. Heat Index Dew Point Humidity Pressure Visibility Wind Dir Wind Speed Gust Speed Precip Events Conditions
12:54 AM 70.0 °F - 61.0 °F 73% 30.00 in 10.0 mi South 5.8 mph - N/A   Clear
1:54 AM 70.0 °F - 61.0 °F 73% 29.99 in 10.0 mi SSW 6.9 mph - N/A   Clear
2:54 AM 69.1 °F - 61.0 °F 75% 29.98 in 10.0 mi South 8.1 mph - N/A   Clear
3:54 AM 70.0 °F - 61.0 °F 73% 29.98 in 10.0 mi SSW 9.2 mph - N/A   Clear
4:54 AM 66.9 °F - 63.0 °F 87% 30.04 in 10.0 mi NW 6.9 mph - N/A   Scattered Clouds
5:54 AM 66.0 °F - 62.1 °F 87% 30.01 in 10.0 mi East 3.5 mph - N/A   Clear
6:54 AM 66.0 °F - 62.1 °F 87% 30.02 in 10.0 mi South 6.9 mph - N/A   Partly Cloudy
7:54 AM 68.0 °F - 62.1 °F 81% 30.03 in 10.0 mi SSW 6.9 mph - N/A   Clear
8:54 AM 70.0 °F - 62.1 °F 76% 30.06 in 10.0 mi SW 6.9 mph - N/A   Clear
9:54 AM 70.0 °F - 62.1 °F 76% 30.08 in 10.0 mi WSW 4.6 mph - N/A   Clear
10:54 AM 75.0 °F - 62.1 °F 64% 30.08 in 10.0 mi WNW 8.1 mph - N/A   Partly Cloudy
11:54 AM 77.0 °F - 63.0 °F 62% 30.08 in 10.0 mi NW 10.4 mph - N/A   Clear
12:54 PM 79.0 °F - 63.0 °F 58% 30.08 in 10.0 mi Variable 6.9 mph - N/A   Clear
1:54 PM 80.1 °F 81.5 °F 63.0 °F 56% 30.07 in 10.0 mi WNW 10.4 mph - N/A   Clear
2:54 PM 82.0 °F 83.1 °F 63.0 °F 52% 30.07 in 10.0 mi WSW 6.9 mph - N/A   Clear
3:54 PM 82.9 °F 84.0 °F 63.0 °F 51% 30.06 in 10.0 mi Variable 6.9 mph - N/A   Scattered Clouds
4:54 PM 82.9 °F 83.7 °F 62.1 °F 49% 30.06 in 10.0 mi NNW 10.4 mph - N/A   Scattered Clouds
5:54 PM 82.0 °F 82.7 °F 61.0 °F 49% 30.06 in 10.0 mi NW 11.5 mph - N/A   Clear
6:54 PM 80.1 °F 81.2 °F 62.1 °F 54% 30.06 in 10.0 mi NW 9.2 mph - N/A   Clear
7:54 PM 77.0 °F - 62.1 °F 60% 30.06 in 10.0 mi NNE 3.5 mph - N/A   Partly Cloudy
8:54 PM 73.9 °F - 61.0 °F 64% 30.09 in 10.0 mi NE 3.5 mph - N/A   Clear
9:54 PM 73.9 °F - 62.1 °F 66% 30.11 in 10.0 mi Calm Calm - N/A   Clear
10:54 PM 73.9 °F - 61.0 °F 64% 30.11 in 10.0 mi Calm Calm - N/A   Clear
11:54 PM 71.1 °F - 62.1 °F 73% 30.11 in 10.0 mi Calm Calm - N/A   Clear